Regional Weather Roundup
Issued by NWS Grand Forks, ND

Home | Current Version | Previous Version | Text Only | Print | Product List | Glossary Off
Versions: 1 2 3 4 5 6 7 8 9 10 11 12 13 14 15 16 17 18 19 20 21 22 23 24 25 26 27 28 29 30 31 32 33 34 35 36 37 38 39 40 41 42 43 44 45 46 47 48 49 50

000
ASUS43 KFGF 281031
RWRFGF
PRAIRIE TO PINES  WEATHER ROUNDUP
NATIONAL WEATHER SERVICE EASTERN NORTH DAKOTA/GRAND FORKS ND
400 AM CST SAT FEB 28 2015

 **SATELLITE DATA USED TO AUGMENT SKY COVER AT AUTOMATED STATIONS**
 *****  WEATHER ACROSS EASTERN NORTH DAKOTA  *****

CITY           SKY/WX    TMP DP  RH WIND       PRES   REMARKS
GRAND FORKS    PTCLDY     1  -5  75 S10       30.25F WCI -15
GRAND FRKS AFB PTCLDY     3  -4  72 S10       30.23F WCI -12
GRAND FRKS NWS   N/A      1 N/A N/A S9          N/A  WCI -14
DEVILS LAKE    CLOUDY     5  -4  66 SE8       30.11F WCI  -8
FARGO          PTCLDY     6  -2  69 S14       30.29F WCI -11
WAHPETON ARPT  MOSUNNY    3  -4  72 SE12      30.32F WCI -13
$$

 ***** WEATHER ACROSS CENTRAL AND WESTERN NORTH DAKOTA  *****

CITY           SKY/WX    TMP DP  RH WIND       PRES   REMARKS
BISMARCK       CLOUDY    13   3  64 SE9       30.08F WCI   1
MINOT          CLOUDY    14   2  58 SW14      30.03F WCI  -1
JAMESTOWN      PTCLDY     4  -2  76 S13       30.15F WCI -13
MINOT AFB      CLOUDY    14   7  73 N15       30.02F WCI  -1
GARRISON         N/A     11   3  70 S3        30.05F
WILLISTON      CLOUDY     7   0  73 N9        30.08S WCI  -7
DICKINSON      PTCLDY     5   0  79 SW6       29.97F WCI  -6
HETTINGER      CLEAR      4  -1  80 CALM      30.00F
$$

 *****  OTHER AIRPORT OBSERVATIONS IN OUR AREA  *****

CITY           SKY/WX    TMP DP  RH WIND       PRES   REMARKS
WALHALLA         N/A      5  -2  72 E6        30.18F WCI  -6
GRAFTON AIRPOR NOT AVBL
VALLEY CITY AR FAIR       5   0  78 S13       30.19F WCI -12
CANDO          CLOUDY     1  -2  85 SE8       30.11F WCI -12
CAVALIER APRT  FAIR       0  -4  85 S8        30.20F WCI -15
GWINNER        SUNNY     12   1  62 SW14      30.24F WCI  -3
ROLLA          CLOUDY     3   0  85 S9        30.07F WCI -11
 ***** THE ABOVE OBSERVATIONS ARE NON NWS ARE NOT QUALITY
       CONTROLLED AND MAY MIS-REPORT RAIN FOR SNOW...
$$

  *****  WEATHER ACROSS NORTHERN MINNESOTA  *****

CITY           SKY/WX    TMP DP  RH WIND       PRES   REMARKS
FLAG ISLAND    MOCLDY    -6  -9  84 S12       30.24F WCI -24
WARROAD        PTCLDY     3  -4  72 S5        30.25F WCI  -6
ROSEAU         MOCLDY     0  -6  78 S10       30.25S WCI -17
HALLOCK        MOCLDY     0  -8  71 SE13      30.24F WCI -18
THF RVR FALLS  PTCLDY     1  -6  71 SE8       30.25F WCI -12
BAUDETTE       MOCLDY    -1  -7  75 SW3       30.27F
WASKISH        MOCLDY     3  -2  78 CALM      30.29F
CROOKSTON      PTCLDY     5   0  78 S14       30.28F WCI -12
STEPHEN NDAWN    N/A      3  -4  72 S16         N/A  WCI -16
GREENBUSH NDAW   N/A      3  -2  78 MISG        N/A
$$
  *****  WEATHER ACROSS CENTRAL AND WEST MINNESOTA  *****

CITY           SKY/WX    TMP DP  RH WIND       PRES   REMARKS
FOSSTON        PTCLDY     0  -6  78 S9        30.27F WCI -16
BEMIDJI        PTCLDY    -1  -5  80 S5        30.29S WCI -11
PARK RAPIDS    PTCLDY    -1  -6  79 S9        30.31F WCI -16
ELBOW LAKE     FAIR       1  -4  81 S12       30.33F WCI -16
WADENA         PTCLDY    -2  -8  78 S5        30.33F WCI -12
DETROIT LAKES  PTCLDY     1  -2  85 S9        30.30F WCI -14
MOORHEAD       PTCLDY     7   1  78 SE13      30.30F WCI  -9
FERGUS FALLS   PTCLDY     1  -4  78 S12       30.37F WCI -15
MORRIS MN      PTCLDY     0  -6  78 SE10      30.35F WCI -17
STAPLES        CLEAR     -2  -6  84 SE3       30.36S
$$
  *****  WEATHER ELSEWHERE ACROSS MINNESOTA  *****

CITY           SKY/WX    TMP DP  RH WIND       PRES   REMARKS
DULUTH         PTCLDY     1  -6  72 SW6       30.39S WCI -10
INTRNTL FALLS  PTCLDY    -3 -10  72 S5        30.31S WCI -13
ELY            PTCLDY    -4  -9  77 SW3       30.35S
CLOQUET        FAIR      -2  -8  78 SW5       30.40S WCI -12
WHEATON        PTCLDY     0  -6  78 SE16      30.34F WCI -21
BRAINERD       PTCLDY    -5  -8  87 S7        30.39F WCI -19
HIBBING        PTCLDY   -19 -25  73 CALM      30.37F
ALEXANDRIA     PTCLDY     2  -3  80 S12       30.35F WCI -15
SAINT CLOUD    CLEAR     -3  -6  87 SE6       30.45F WCI -15
MINNEAPOLIS    CLEAR      1  -5  75 SE3       30.52F
$$

  *****  WEATHER ACROSS SOUTH DAKOTA  *****

CITY           SKY/WX    TMP DP  RH WIND       PRES   REMARKS
SIOUX FALLS    FAIR       5  -2  72 S13       30.38F WCI -12
BROOKINGS      NOT AVBL
WATERTOWN      PTCLDY    -1  -6  79 S12       30.27F WCI -18
HURON          CLEAR      6   0  76 SE14G22   30.28F WCI -11
SISSETON       NOT AVBL
ABERDEEN       PTCLDY     8   0  69 S16       30.24F WCI -10
MITCHELL       CLEAR      8   1  73 S13       30.33F WCI  -8
PIERRE         CLEAR     11   2  67 S16       30.15F WCI  -6
MOBRIDGE       CLEAR     10   2  69 SE10      30.09F WCI  -4
RAPID CITY     CLEAR      7   3  84 CALM      30.00S
$$

  *****  SOME WEATHER IN NEARBY STATES *****

CITY           SKY/WX    TMP DP  RH WIND       PRES   REMARKS
GLASGOW MT     CLOUDY     9   2  73 NW3       30.13S
GREAT FALLS MT CLOUDY    12   8  84 N10       30.11S WCI  -1
CHEYENNE WY    CLEAR     -1  -5  82 SW7       29.82R WCI -14
SCOTTSBLUFF NE CLEAR      7   3  84 E7        29.98F WCI  -5
OMAHA NE       CLEAR      7   0  73 S7        30.50F WCI  -5
DES MOINES IA  CLEAR      3  -4  72 SE8       30.55F WCI -10
DAVENPORT IA   PTCLDY    -9 -15  75 SE5       30.64S WCI -20
CHICAGO IL     PTCLDY    -7 -12  79 SW3       30.65S
EAU CLAIRE WI  PTCLDY    -5 -10  79 S5        30.54F WCI -16
LA CROSSE WI   PTCLDY    -7 -12  79 S5        30.61S WCI -18
$$

  *****  SOME NATIONAL WEATHER *****

CITY           SKY/WX    TMP DP  RH WIND       PRES   REMARKS
LA GUARDIA NY  FAIR      16  -2  45 NW8       30.72R WCI   5
RALEIGH NC     FAIR      27  18  69 E9        30.65R WCI  18
ATLANTA GA     MOCLDY    35  24  64 NE9       30.47R
NEW ORLEANS LA MOCLDY    44  31  60 NE14      30.37S
OKLAHOMA CITY  LGT SNOW  19  14  79 E6        30.39F WCI  11
ALBUQUERQUE NM LGT SNOW  19  17  92 N10       29.89R FOG     WCI   7
SALT LAKE CITY PTCLDY    32  21  64 S9        29.68S WCI  24
LOS ANGELES CA MOCLDY    56  47  71 W20       29.76R
BOISE ID       CLOUDY    40  29  64 W5        29.69R
SEATTLE WA     PTCLDY    44  33  65 N15       29.99R
$$

*** WEATHER ACROSS MANITOBA...SASKATCHEWAN AND ONTARIO ***
                ***ONTARIO***

CITY           SKY/WX    TMP DP  RH WIND       PRES   REMARKS
GERALDTON      PTCLDY     5  -8  56 SW7       30.24R WCI  -7
THUNDER BAY    CLEAR    -13 -18  77 W8        30.40R WCI -30
SIOUX LOOKOUT  PTCLDY     1  -6  71 SW6       30.24S WCI -10
TORONTO        CLEAR      1  -4  78 SW8       30.68R WCI -12
BIG TROUT LK   FLURRIES   5   1  85 SW7       30.03S WCI  -7
PICKLE LAKE    NOT AVBL
DRYDEN         CLOUDY     3  -4  72 SW9       30.23F WCI -11
KENORA         MOCLDY     1  -4  78 S10       30.21F WCI -14
$$
                *** MANITOBA***

CITY           SKY/WX    TMP DP  RH WIND       PRES   REMARKS
BRANDON        MOCLDY     0  -4  85 SE5       30.11F WCI -10
DAUPHIN        CLEAR      1  -6  71 SW12      30.13F WCI -15
ISLAND LAKE    CLOUDY     7   0  72 SW6       30.06F WCI  -3
PILOT MOUND      N/A     -6  -9  84 SE8         N/A  WCI -21
THE PAS        CLOUDY     7   0  72 SW3       30.09F
THOMPSON       CLOUDY    10   3  72 W9        29.97F WCI  -2
WINNIPEG       CLOUDY     1  -6  71 S12       30.21F WCI -15
LYNN LAKE      MOCLDY     3   1  92 W8        29.91F WCI -10
CHURCHILL      CRYSTALS   7   3  85 SW10      29.78F WCI  -8
GILLAM         FLURRIES  10   3  72 SW10      29.93F WCI  -3
$$
                ***SASKATCHEWAN***

CITY           SKY/WX    TMP DP  RH WIND       PRES   REMARKS
ESTEVAN        CRYSTALS  -9 -13  84 NW13      30.07F WCI -30
KINDERSLEY     FLURRIES   1  -2  85 W6        30.15F WCI -10
LLOYDMINSTER   CLEAR     -2  -6  84 W12       30.10F WCI -20
PRINCE ALBERT  CLEAR    -11 -17  77 W3        30.13F
REGINA         PTCLDY   -15 -20  76 NW7       30.11S WCI -31
YORKTON        CLEAR     -8 -11  84 W6        30.10S WCI -21
N. BATTLEFORD  CLEAR     -9 -15  77 CALM      30.16F
LA RONGE       CLEAR      0  -6  78 W7        30.07F WCI -13
SASKATOON      CLEAR    -11 -15  84 W5        30.17F WCI -23
SWIFT CURRENT  FLURRIES   5   1  85 NW15      30.09S WCI -13
$$
NOTE: THESE ARE AUTOMATED STATIONS WITH LIMITED QUALITY CONTROL
      "FAIR" INDICATES FEW OR NO CLOUDS BELOW 12,000 FEET WITH NO
      SIGNIFICANT WEATHER AND/OR OBSTRUCTIONS TO VISIBILITY.
      SKY/WX - SKY CONDITION AND SIGNIFICANT WEATHER.
      TMP - AIR TEMPERATURE.    DP   - DEWPOINT TEMPERATURE.
      RH  - RELATIVE HUMIDITY.  PRES - PRESSURE.
      HX  - HEAT INDEX.         WCI  - WIND CHILL INDEX.
$



USA.gov is the U.S. government's official web portal to all federal, state and local government web resources and services.